TIME,DELAY(SENSOR),PRES,OXYGEN,RAWTEMP,T(OPTODE),TCPHASE,FLUOR,BETA(BETA700),BETA(BETA412),BETA(BETA440),CDOM,C(CSC),ED(ED412.20),ED(ED444.00),ED(ED489.60),ED(ED554.30),LU(LU412.10),LU(LU443.90),LU(LU489.70),LU(LU554.70),COMP,TILTX,TILTY,CHECK
1367382045,5808,865.4699707031250000,31.3069400787353500,559.1610107421875000,4.5118942260742190,56.8748703002929700,55,99,100,77,81,15516,0,0,0,0,2147122240,2147766189,2147572937,2147570102,871,2,13,42996
1367385641,5811,918.9600219726562000,34.7888908386230500,563.3872070312500000,4.3808732032775880,56.3479614257812500,55,98,99,80,81,15516,0,0,0,0,2147123538,2147766875,2147569837,2147570971,58,2,13,33749
1367389241,5810,919.4699707031250000,35.6473999023437500,565.3820800781250000,4.3189740180969240,56.2357902526855500,55,98,99,77,82,15514,0,0,0,0,2147125037,2147767533,2147573476,2147568466,541,2,13,17451
1367392841,5809,949.7000122070312000,37.3031806945800800,568.9241943359375000,4.2089881896972660,56.0086402893066400,55,99,99,78,81,15514,0,0,0,0,2147125229,2147766656,2147575670,2147570194,3301,2,13,59849
1367396441,5808,945.7600097656250000,37.5593681335449200,569.5772094726562000,4.1887001991271970,55.9784202575683600,55,97,99,78,80,15507,0,0,0,0,2147124882,2147769033,2147576466,2147565275,381,2,13,47967
1367400041,5808,951.6099853515625000,37.2577590942382800,569.5288696289062000,4.1902008056640625,56.0287513732910160,55,99,100,78,80,15506,0,0,0,0,2147125028,2147768896,2147574116,2147567040,335,3,13,452
1367403641,5809,976.8900146484375000,40.2913284301757800,572.7329711914062000,4.0905990600585940,55.5998306274414060,55,97,102,78,82,15505,0,0,0,0,2147124297,2147770651,2147572845,2147568667,3590,2,13,13011
1367407241,5808,978.8699951171875000,40.4677009582519500,572.7628173828125000,4.0896720886230470,55.5769309997558600,55,97,100,77,81,15508,0,0,0,0,2147121865,2147768539,2147572653,2147569499,3335,2,13,39146
1367410841,5808,987.0300292968750000,37.2186889648437500,572.9066772460938000,4.0851988792419430,56.0633010864257800,54,98,99,78,82,15505,0,0,0,0,2147123638,2147767835,2147573385,2147566884,129,2,13,62889
1367414441,5809,991.3400268554688000,39.6420783996582000,572.5740966796875000,4.0955410003662110,55.6980781555175800,54,97,98,77,81,15488,0,0,0,0,2147123657,2147771456,2147571273,2147564169,3257,2,13,47601
1367418041,5808,987.2000122070312000,38.5496101379394500,572.3648071289062000,4.1020488739013670,55.8614997863769500,55,98,100,78,82,15506,0,0,0,0,2147125558,2147770112,2147576347,2147567323,147,3,13,18403
1367421641,5813,990.8400268554688000,37.7166900634765600,572.5513916015625000,4.0962471961975100,55.9874000549316400,56,97,99,77,82,15505,0,0,0,0,2147121792,2147769152,2147570459,2147569298,3487,2,13,58157
1367425241,5813,992.2899780273438000,38.8777694702148440,572.7926025390625000,4.0887451171875000,55.8145713806152340,55,98,101,78,82,15504,0,0,0,0,2147121316,2147770358,2147571547,2147566454,38,2,13,26173
1367428841,5813,994.4099731445312000,39.1933898925781250,572.7495727539062000,4.0900821685791020,55.7676010131835940,54,96,101,77,81,15505,0,0,0,0,2147124571,2147772406,2147573074,2147570358,46,3,13,63553
1367432441,5809,994.9199829101562000,39.9009094238281250,572.7139282226562000,4.0911917686462400,55.6570816040039060,54,98,100,78,82,15502,0,0,0,0,2147125778,2147768073,2147570267,2147565504,97,2,13,32474
1367436041,5812,987.0800170898438000,38.8392601013183600,573.7454223632812000,4.0591111183166500,55.8267211914062500,55,100,99,77,82,15506,0,0,0,0,2147121993,2147771190,2147573074,2147565302,3448,2,13,17426
1367439641,5812,986.4500122070312000,40.0561714172363300,574.8170776367188000,4.0257678031921390,55.6557998657226560,54,100,99,77,82,15478,0,0,0,0,2147118299,2147770093,2147568923,2147569453,43,2,13,42448
1367443241,5808,990.1400146484375000,40.1692581176757800,574.2346801757812000,4.0438899993896480,55.6391601562500000,54,97,100,78,82,15489,0,0,0,0,2147123163,2147770240,2147570285,2147569124,144,2,13,56383
1367446841,5807,990.2000122070312000,39.0333786010742200,573.0103759765625000,4.0819721221923830,55.7900085449218750,55,96,100,78,81,15489,0,0,0,0,2147119168,2147769801,2147570523,2147566171,3488,2,13,42204
1367450441,5809,992.9299926757812000,40.4798202514648440,574.2753906250000000,4.0426239967346190,55.5868301391601560,55,101,101,78,82,15469,0,0,0,0,2147123995,2147766125,2147569316,2147565430,318,2,13,36084
1367454041,5809,991.1099853515625000,39.8290596008300800,574.7852172851562000,4.0267601013183590,55.6943397521972660,55,100,101,78,81,15473,0,0,0,0,2147119533,2147769389,2147572269,2147568466,224,2,13,36050
1367457641,5810,998.5900268554688000,40.3478202819824200,573.1359252929688000,4.0780720710754395,55.6006813049316400,55,97,99,79,81,15471,0,0,0,0,2147119844,2147770505,2147572388,2147568539,3027,2,13,33538
1367461241,5812,994.6099853515625000,39.5712394714355500,573.2202758789062000,4.0754427909851070,55.7119102478027340,55,100,99,79,81,15471,0,0,0,0,2147120502,2147765659,2147572178,2147565942,3110,2,13,54892
1367464841,5810,998.8599853515625000,40.2883300781250000,572.6571044921875000,4.0929598808288570,55.6036109924316400,54,98,99,78,81,15465,0,0,0,0,2147123858,2147772022,2147572068,2147569508,3270,2,13,35973
1367468441,5810,994.0499877929688000,38.9827499389648440,572.6331787109375000,4.0937042236328125,55.7949218750000000,56,97,100,78,81,15471,0,0,0,0,2147123629,2147767222,2147571629,2147565888,3177,2,13,32361
1367472041,5811,998.2700195312500000,39.7528305053710940,571.2745971679688000,4.1359438896179200,55.6625709533691400,54,99,100,77,82,15487,0,0,0,0,2147125869,2147767387,2147573979,2147565293,93,2,13,11048
1367475641,5808,997.5200195312500000,39.8056907653808600,571.3007202148438000,4.1351361274719240,55.6563186645507800,55,98,99,78,82,15486,0,0,0,0,2147123922,2147770139,2147575689,2147564626,59,3,13,2018
1367479241,5808,997.4099731445312000,36.2019805908203100,571.7188110351562000,4.1221370697021480,56.2083091735839840,56,99,99,79,81,15484,0,0,0,0,2147119725,2147770413,2147571227,2147569536,130,2,13,58157
1367482841,5812,998.0800170898438000,37.9046592712402340,572.1749877929688000,4.1079521179199220,55.9575309753418000,55,98,100,77,82,15486,0,0,0,0,2147119542,2147767241,2147569645,2147569069,287,2,13,53913
1367486441,5809,994.8800048828125000,39.9584999084472660,573.0571289062500000,4.0805230140686035,55.6513099670410160,54,97,99,76,81,15479,0,0,0,0,2147122349,2147764571,2147566912,2147570166,3509,2,13,648
1367490041,5809,996.0100097656250000,40.7525482177734400,573.4141235351562000,4.0694179534912110,55.5422592163085940,55,98,100,77,81,15483,0,0,0,0,2147122249,2147770505,2147570733,2147570770,154,2,13,7553
1367493641,5809,996.3800048828125000,39.9814987182617200,573.0996704101562000,4.0791950225830080,55.6508216857910160,54,97,98,77,81,15484,0,0,0,0,2147123108,2147767414,2147570761,2147567442,3589,2,13,26992
1367497241,5810,997.5599975585938000,39.7859992980957000,574.2020263671875000,4.0449070930480960,55.6943588256835940,55,98,100,78,82,15485,0,0,0,0,2147123657,2147767533,2147570560,2147569517,3571,2,13,59869
1367500841,5808,996.1300048828125000,39.0190696716308600,573.1826782226562000,4.0766139030456540,55.7936286926269500,54,98,99,77,81,15482,0,0,0,0,2147123218,2147768091,2147573193,2147566701,160,2,13,18901
1367504441,5811,995.6699829101562000,39.4998016357421900,574.3082275390625000,4.0416011810302730,55.7349510192871100,54,97,98,78,81,15484,0,0,0,0,2147121435,2147764461,2147573302,2147567890,3349,2,13,4059
1367508041,5811,999.8800048828125000,38.9664802551269500,573.1248168945312000,4.0784168243408200,55.7999687194824200,55,98,100,76,81,15479,0,0,0,0,2147123529,2147767158,2147571300,2147566134,99,2,13,15369
1367511641,5810,998.2600097656250000,38.9826698303222660,573.1002807617188000,4.0791759490966800,55.8017616271972660,54,99,100,78,81,15476,0,0,0,0,2147121929,2147774016,2147571867,2147567369,3469,2,13,1801
1367515241,5809,998.8300170898438000,39.5023918151855500,573.1901245117188000,4.0763850212097170,55.7247810363769500,55,97,99,77,82,15479,0,0,0,0,2147123044,2147769526,2147572836,2147565979,123,2,13,1891
1367518841,5809,995.5200195312500000,40.0649681091308600,573.1774291992188000,4.0767779350280760,55.6381187438964840,56,98,99,78,82,15473,0,0,0,0,2147120621,2147765622,2147570340,2147564598,27,2,13,4640
1367522441,5808,992.9000244140625000,38.0867805480957000,573.4884033203125000,4.0671038627624510,55.9411811828613300,55,105,100,81,81,15478,0,0,0,0,2147124178,2147769490,2147567744,2147565970,140,2,13,33980
1367526041,5809,991.4000244140625000,40.3537216186523440,575.0471191406250000,4.0186119079589840,55.6136817932128900,55,97,99,77,81,15476,0,0,0,0,2147124982,2147765824,2147566866,2147567881,3554,2,13,70
1367526356,5809,989.4500122070312000,40.6506195068359400,575.0034790039062000,4.0199680328369140,55.5722007751464840,55,98,100,78,81,15475,0,0,0,0,2147121371,2147766336,2147570258,2147563163,3454,2,13,7828
